Weather History for KMUT - December, 2013

Change the Weather History Date:

Monday, December 9, 2013

  Actual Average Record
Temperature  
Mean Temperature 5 °F -  
Max Temperature 21 °F 37 °F 57 °F (1993)
Min Temperature -11 °F 20 °F -12 °F (1958)
Degree Days  
Heating Degree Days 60    
Moisture  
Dew Point 1 °F    
Average Humidity 76    
Maximum Humidity 86    
Minimum Humidity 57    
Precipitation  
Precipitation 0.00 in - - ()
Sea Level Pressure  
Sea Level Pressure 30.22 in    
Wind  
Wind Speed 11 mph (West)    
Max Wind Speed 17 mph    
Max Gust Speed 24 mph    
Visibility 10 miles    
Events Snow    
Averages and records for this station are not official NWS values.
T = Trace of Precipitation, MM = Missing Value Source: NWS Daily Summary

Daily Weather History Graph

Daily Weather History Graph

Search for Another Location

Airport or City:

Trip Planner

Search our weather history database for the weather conditions in past years. The results will help you decide how hot, cold, wet, or windy it might be!

Date:

Astronomy

Dec. 09, 2013 Rise Set
Actual Time 7:19 AM CST 4:35 PM CST
Civil Twilight 6:47 AM CST 5:06 PM CST
Nautical Twilight 6:13 AM CST 5:40 PM CST
Astronomical Twilight 5:39 AM CST 6:14 PM CST
Moon 12:08 PM CST (12/9) No Moon Set
Length of Visible Light 10h 18m
Length of Day
9h 16m
Waxing Crescent, 51% of the Moon is Illuminated
Dec 9
Waxing Crescent
Dec 17
Full
Dec 25
Last Quarter
Jan 1
New
Jan 7
First Quarter

Hourly Weather History & Observations

Time (CST) Temp. Windchill Dew Point Humidity Pressure Visibility Wind Dir Wind Speed Gust Speed Precip Events Conditions
12:15 AM 21.2 °F 8.3 °F 17.6 °F 86% 30.03 in 5.0 mi West 13.8 mph - N/A Snow Light Snow
12:35 AM 21.2 °F 8.3 °F 17.6 °F 86% 30.03 in 5.0 mi West 13.8 mph - N/A Snow Light Snow
1:15 AM 21.2 °F 7.8 °F 17.6 °F 86% 30.03 in 4.0 mi West 15.0 mph - N/A Snow Light Snow
1:35 AM 21.2 °F 8.3 °F 15.8 °F 80% 30.04 in 7.0 mi West 13.8 mph - N/A Snow Light Snow
1:55 AM 19.4 °F 5.5 °F 15.8 °F 86% 30.06 in 10.0 mi West 15.0 mph - N/A Snow Light Snow
2:15 AM 19.4 °F 5.0 °F 15.8 °F 86% 30.06 in 10.0 mi West 16.1 mph - N/A Snow Light Snow
2:35 AM 17.6 °F 3.7 °F 14.0 °F 86% 30.07 in 10.0 mi West 13.8 mph - N/A   Scattered Clouds
2:55 AM 17.6 °F 3.2 °F 14.0 °F 86% 30.08 in 10.0 mi West 15.0 mph - N/A   Mostly Cloudy
3:15 AM 15.8 °F 0.9 °F 12.2 °F 86% 30.08 in 10.0 mi West 15.0 mph - N/A   Scattered Clouds
3:35 AM 15.8 °F 1.4 °F 12.2 °F 86% 30.09 in 10.0 mi West 13.8 mph - N/A   Clear
3:55 AM 15.8 °F 3.4 °F 12.2 °F 86% 30.09 in 10.0 mi West 10.4 mph - N/A   Clear
4:35 AM 14.0 °F -0.2 °F 10.4 °F 86% 30.10 in 10.0 mi West 12.7 mph - N/A   Overcast
4:55 AM 12.2 °F -1.0 °F 8.6 °F 85% 30.11 in 10.0 mi West 10.4 mph - N/A   Scattered Clouds
5:15 AM 12.2 °F -0.2 °F 8.6 °F 85% 30.12 in 10.0 mi WSW 9.2 mph - N/A   Clear
5:35 AM 12.2 °F -1.0 °F 8.6 °F 85% 30.12 in 10.0 mi West 10.4 mph - N/A   Clear
5:55 AM 10.4 °F -4.1 °F 6.8 °F 85% 30.12 in 10.0 mi West 11.5 mph - N/A   Clear
6:15 AM 10.4 °F -4.1 °F 6.8 °F 85% 30.15 in 10.0 mi West 11.5 mph - N/A   Clear
6:35 AM 10.4 °F -4.1 °F 6.8 °F 85% 30.16 in 10.0 mi West 11.5 mph - N/A   Clear
6:55 AM 10.4 °F -2.4 °F 6.8 °F 85% 30.17 in 10.0 mi West 9.2 mph - N/A   Clear
7:15 AM 10.4 °F -4.1 °F 5.0 °F 79% 30.18 in 10.0 mi West 11.5 mph - N/A   Clear
7:35 AM 8.6 °F -7.0 °F 5.0 °F 85% 30.19 in 10.0 mi West 12.7 mph - N/A   Clear
7:55 AM 8.6 °F -6.3 °F 5.0 °F 85% 30.19 in 10.0 mi West 11.5 mph - N/A   Clear
8:15 AM 8.6 °F -6.3 °F 5.0 °F 85% 30.20 in 10.0 mi West 11.5 mph - N/A   Clear
8:35 AM 10.4 °F -4.1 °F 5.0 °F 79% 30.20 in 10.0 mi West 11.5 mph - N/A   Clear
8:55 AM 8.6 °F -6.3 °F 5.0 °F 85% 30.21 in 10.0 mi WNW 11.5 mph - N/A   Clear
9:15 AM 10.4 °F -5.4 °F 5.0 °F 79% 30.23 in 10.0 mi WNW 13.8 mph - N/A   Clear
9:35 AM 10.4 °F -4.8 °F 5.0 °F 79% 30.24 in 10.0 mi WNW 12.7 mph - N/A   Clear
9:55 AM 10.4 °F -4.8 °F 5.0 °F 79% 30.24 in 10.0 mi WNW 12.7 mph - N/A   Clear
10:15 AM 12.2 °F -1.0 °F 5.0 °F 73% 30.24 in 10.0 mi West 10.4 mph - N/A   Clear
10:35 AM 12.2 °F -3.7 °F 5.0 °F 73% 30.25 in 6.0 mi West 15.0 mph - N/A   Haze
10:55 AM 12.2 °F -3.1 °F 5.0 °F 73% 30.26 in 10.0 mi West 13.8 mph - N/A   Clear
11:15 AM 12.2 °F -4.3 °F 5.0 °F 73% 30.26 in 10.0 mi West 16.1 mph - N/A   Scattered Clouds
11:35 AM 10.4 °F -6.6 °F 3.2 °F 73% 30.27 in 10.0 mi West 16.1 mph 24.2 mph N/A   Mostly Cloudy
11:55 AM 10.4 °F -6.6 °F 1.4 °F 67% 30.27 in 10.0 mi West 16.1 mph 21.9 mph N/A   Scattered Clouds
12:15 PM 10.4 °F -7.2 °F 1.4 °F 67% 30.28 in 10.0 mi West 17.3 mph - N/A   Clear
12:35 PM 10.4 °F -7.2 °F -0.4 °F 62% 30.28 in 10.0 mi West 17.3 mph - N/A   Clear
12:55 PM 8.6 °F -8.9 °F -2.2 °F 62% 30.28 in 10.0 mi WSW 16.1 mph 23.0 mph N/A   Clear
1:15 PM 10.4 °F -5.4 °F -2.2 °F 57% 30.28 in 10.0 mi West 13.8 mph 21.9 mph N/A   Clear
1:35 PM 8.6 °F -8.9 °F -2.2 °F 62% 30.28 in 10.0 mi West 16.1 mph - N/A   Clear
1:55 PM 8.6 °F -8.9 °F -2.2 °F 62% 30.28 in 10.0 mi West 16.1 mph - N/A   Clear
2:15 PM 8.6 °F -8.9 °F -2.2 °F 62% 30.30 in 10.0 mi West 16.1 mph - N/A   Clear
2:35 PM 8.6 °F -7.7 °F -2.2 °F 62% 30.30 in 10.0 mi West 13.8 mph - N/A   Clear
2:55 PM 8.6 °F -7.0 °F -2.2 °F 62% 30.30 in 10.0 mi West 12.7 mph 18.4 mph N/A   Clear
3:15 PM 8.6 °F -8.9 °F -4.0 °F 57% 30.30 in 10.0 mi West 16.1 mph - N/A   Clear
3:35 PM 8.6 °F - -2.2 °F 62% 30.30 in 10.0 mi North - - N/A   Clear
3:55 PM 8.6 °F -7.0 °F -2.2 °F 62% 30.30 in 10.0 mi West 12.7 mph - N/A   Clear
4:15 PM 6.8 °F -6.9 °F -4.0 °F 61% 30.30 in 10.0 mi West 9.2 mph - N/A   Clear
4:35 PM 6.8 °F -4.8 °F -4.0 °F 61% 30.29 in 10.0 mi WNW 6.9 mph - N/A   Clear
4:55 PM 5.0 °F - -5.8 °F 61% 30.29 in 10.0 mi Calm Calm - N/A   Clear
5:15 PM 5.0 °F - -5.8 °F 61% 30.29 in 10.0 mi Calm Calm - N/A   Clear
5:35 PM 5.0 °F - -4.0 °F 66% 30.29 in 10.0 mi Calm Calm - N/A   Clear
5:55 PM 5.0 °F -4.1 °F -4.0 °F 66% 30.29 in 10.0 mi SW 4.6 mph - N/A   Clear
6:15 PM 5.0 °F - -4.0 °F 66% 30.29 in 10.0 mi Calm Calm - N/A   Clear
6:35 PM 5.0 °F - -4.0 °F 66% 30.28 in 10.0 mi Calm Calm - N/A   Clear
6:55 PM 5.0 °F - -4.0 °F 66% 30.28 in 10.0 mi Calm Calm - N/A   Clear
7:15 PM 3.2 °F - -4.0 °F 72% 30.28 in 10.0 mi Calm Calm - N/A   Clear
7:35 PM -2.2 °F - -7.6 °F 78% 30.28 in 10.0 mi Calm Calm - N/A   Clear
7:55 PM -2.2 °F - -7.6 °F 78% 30.27 in 10.0 mi Calm Calm - N/A   Clear
8:15 PM -4.0 °F - -7.6 °F 85% 30.27 in 10.0 mi Calm Calm - N/A   Clear
8:35 PM -5.8 °F -14.5 °F -9.4 °F 84% 30.28 in 10.0 mi SSW 3.5 mph - N/A   Clear
8:55 PM -5.8 °F -16.7 °F -11.2 °F 77% 30.27 in 10.0 mi South 4.6 mph - N/A   Clear
9:15 PM -5.8 °F -14.5 °F -9.4 °F 84% 30.27 in 10.0 mi South 3.5 mph - N/A   Clear
9:35 PM -5.8 °F - -11.2 °F 77% 30.27 in 10.0 mi Calm Calm - N/A   Clear
9:55 PM -7.6 °F - -13.0 °F 77% 30.26 in 10.0 mi Calm Calm - N/A   Clear
10:15 PM -9.4 °F - -13.0 °F 84% 30.25 in 10.0 mi Calm Calm - N/A   Clear
10:35 PM -11.2 °F -24.8 °F -14.8 °F 84% 30.25 in 10.0 mi South 5.8 mph - N/A Snow Light Snow
10:55 PM -9.4 °F -24.3 °F -13.0 °F 84% 30.24 in 10.0 mi SSW 6.9 mph - N/A   Clear
11:15 PM -5.8 °F -21.2 °F -9.4 °F 84% 30.24 in 10.0 mi SSW 8.1 mph - N/A   Clear
11:35 PM -11.2 °F - -16.6 °F 77% 30.25 in 10.0 mi Calm Calm - N/A   Clear
11:55 PM -9.4 °F - -13.0 °F 84% 30.23 in 10.0 mi Calm Calm - N/A   Clear